Flag for Canada Weather past 2 weeks in Belleville, Ontario, Canada

Now
73 °F

Passing clouds.


Feels Like: 77 °F
Forecast: 61 / 83 °F
Wind: 7 mph from Southwest

Location: Trenton

Current Time: Jul 5, 2015 at 8:08:51 PM

Latest Report: Jul 5, 2015 at 7:00 PM


Visibility: 15 mi

Pressure: 30.09 "Hg

Humidity: 57%

Dew point: 57 °F

Location of BellevilleLocation

Historic Weather in Belleville — Graph

°F

Belleville temperature yesterday

Maximum temperature yesterday: 77 °F (at 2:00 PM)
Minimum temperature yesterday: 54 °F (at 1:00 AM)
Average temperature yesterday: 66 °F

Past Weeks' High & Low Weather Summary

 TemperatureHumidityPressure
High81 °F (Jun 21, 5:00 PM)100% (Jun 23, 4:00 AM)30.12 "Hg (Jun 23, 4:00 AM)
Low52 °F (Jun 27, 5:00 AM)36% (Jul 3, 6:00 PM)29.61 "Hg (Jun 23, 11:00 AM)
Average65 °F78%29.90 "Hg
* Reported Jun 20 7:00 PM — Jul 5 7:00 PM, Belleville, Weather by CustomWeather, © 2015

Note: Actual official high and low records may vary slightly from our data, if they occured in-between our weather recording intervals... More about our weather records

Advertising

Belleville weather history for previous 24 hours

 ConditionsComfort  
Time TempWeatherWind HumidityBarometerVisibility
7:00 PM
Sun, Jul 5
73 °FPassing clouds.7 mph57%30.09 "Hg15 mi
6:00 PM73 °FPassing clouds.9 mph57%30.09 "Hg15 mi
5:00 PM75 °FPassing clouds.9 mph57%30.09 "Hg15 mi
4:00 PM75 °FPassing clouds.8 mph61%30.11 "Hg15 mi
3:00 PM73 °FPassing clouds.9 mph61%30.11 "Hg15 mi
2:00 PM73 °FPassing clouds.10 mph65%30.12 "Hg15 mi
1:00 PM73 °FPassing clouds.9 mph69%30.12 "Hg15 mi
12:00 PM73 °FPassing clouds.9 mph69%30.12 "Hg15 mi
11:00 AM73 °FSunny.3 mph69%30.11 "Hg15 mi
10:00 AM72 °FSunny.7 mph69%30.11 "Hg15 mi
9:00 AM68 °FSunny.7 mph73%30.10 "Hg15 mi
8:00 AM64 °FSunny.8 mph78%30.10 "Hg15 mi
7:00 AM61 °FSunny.5 mph88%30.09 "Hg15 mi
6:00 AM59 °FPassing clouds.2 mph88%30.06 "Hg15 mi
5:00 AM61 °FPassing clouds.2 mph83%30.04 "Hg15 mi
4:00 AM59 °FPassing clouds.No wind88%30.03 "Hg15 mi
3:00 AM59 °FPassing clouds.3 mph88%30.03 "Hg15 mi
2:00 AM61 °FPassing clouds.2 mph83%30.01 "Hg15 mi
1:00 AM59 °FPassing clouds.No wind82%30.01 "Hg15 mi
12:00 AM63 °FClear.No wind73%29.99 "Hg15 mi
11:00 PM
Sat, Jul 4
66 °FClear.2 mph64%29.98 "Hg15 mi
10:00 PM66 °FClear.5 mph60%29.96 "Hg15 mi
9:00 PM70 °FPassing clouds.7 mph57%29.94 "Hg15 mi
8:00 PM72 °FSunny.7 mph61%29.93 "Hg15 mi
Weather by CustomWeather, © 2015

See weather overviewHow to use our weather pages